User: anonymous   Login
Location: Ferma
(41.9500°N, 44.5167°E)
Time: 08:00:27
(UTC+00:00)
Language:

Cosmos 1892 Rocket - Orbit

View from above orbital plane
View from above orbital plane
View from above satellite
View from above satellite

Ground track
Ground track

The orbit data is extracted from the following two-line orbital elements,

1 18422U 87088B   22023.88522376  .00000146  00000-0  14956-4 0  9998
2 18422  82.5101  40.8391 0018190 301.9432 108.6585 14.83120733829972
Epoch (UTC): 23 January 2022 21:14:43
Eccentricity: 0.0018190
inclination: 82.5101°
perigee height: 607 km
apogee height: 632 km
right ascension of ascending node: 40.8391°
argument of perigee: 301.9432°
revolutions per day: 14.83120733
mean anomaly at epoch: 108.6585°
orbit number at epoch: 82997

The dashed part of the orbit path shows where the satellite is in the earth's shadow,  

DLR